#Datum;Uhrzeit;WR;Pac;DaySum;Status;WR;Pac;DaySum;Status;Pdc1;Udc;Temp;WR;Pac;DaySum;Status;Pdc1;Udc;Temp;WR;Pac;DaySum;Status;Pdc1;Udc;Temp;WR;Pac;DaySum;Status;Pdc1;Pdc2;Udc1;Udc2;Temp;WR;Pac;DaySum;Status;Pdc1;Pdc2;Udc1;Udc2;Temp;WR;Pac;DaySum;Status;Pdc1;Udc;Temp;WR;Pac;DaySum;Status;Pdc1;Udc;Temp;WR;Pac;DaySum;Status;Pdc1;Udc;Temp
03.11.18;23:55:00;1;445;10470;0;2;0;3851;0;0;0;0;3;0;2394;0;0;0;0;4;0;3282;0;0;0;0;5;0;8208;0;0;0;0;0;0;6;0;5426;0;0;0;0;0;0;7;0;4271;0;0;0;0;8;0;4281;0;0;0;0;9;0;2288;0;0;0;0
03.11.18;23:50:00;1;462;10432;0;2;0;3851;0;0;0;0;3;0;2394;0;0;0;0;4;0;3282;0;0;0;0;5;0;8208;0;0;0;0;0;0;6;0;5426;0;0;0;0;0;0;7;0;4271;0;0;0;0;8;0;4281;0;0;0;0;9;0;2288;0;0;0;0
03.11.18;23:45:00;1;464;10394;0;2;0;3851;0;0;0;0;3;0;2394;0;0;0;0;4;0;3282;0;0;0;0;5;0;8208;0;0;0;0;0;0;6;0;5426;0;0;0;0;0;0;7;0;4271;0;0;0;0;8;0;4281;0;0;0;0;9;0;2288;0;0;0;0
03.11.18;23:40:00;1;420;10355;0;2;0;3851;0;0;0;0;3;0;2394;0;0;0;0;4;0;3282;0;0;0;0;5;0;8208;0;0;0;0;0;0;6;0;5426;0;0;0;0;0;0;7;0;4271;0;0;0;0;8;0;4281;0;0;0;0;9;0;2288;0;0;0;0
03.11.18;23:35:00;1;420;10320;0;2;0;3851;0;0;0;0;3;0;2394;0;0;0;0;4;0;3282;0;0;0;0;5;0;8208;0;0;0;0;0;0;6;0;5426;0;0;0;0;0;0;7;0;4271;0;0;0;0;8;0;4281;0;0;0;0;9;0;2288;0;0;0;0
03.11.18;23:30:00;1;421;10285;0;2;0;3851;0;0;0;0;3;0;2394;0;0;0;0;4;0;3282;0;0;0;0;5;0;8208;0;0;0;0;0;0;6;0;5426;0;0;0;0;0;0;7;0;4271;0;0;0;0;8;0;4281;0;0;0;0;9;0;2288;0;0;0;0
03.11.18;23:25:00;1;421;10250;0;2;0;3851;0;0;0;0;3;0;2394;0;0;0;0;4;0;3282;0;0;0;0;5;0;8208;0;0;0;0;0;0;6;0;5426;0;0;0;0;0;0;7;0;4271;0;0;0;0;8;0;4281;0;0;0;0;9;0;2288;0;0;0;0
03.11.18;23:20:00;1;419;10214;0;2;0;3851;0;0;0;0;3;0;2394;0;0;0;0;4;0;3282;0;0;0;0;5;0;8208;0;0;0;0;0;0;6;0;5426;0;0;0;0;0;0;7;0;4271;0;0;0;0;8;0;4281;0;0;0;0;9;0;2288;0;0;0;0
03.11.18;23:15:00;1;423;10179;0;2;0;3851;0;0;0;0;3;0;2394;0;0;0;0;4;0;3282;0;0;0;0;5;0;8208;0;0;0;0;0;0;6;0;5426;0;0;0;0;0;0;7;0;4271;0;0;0;0;8;0;4281;0;0;0;0;9;0;2288;0;0;0;0
03.11.18;23:10:00;1;367;10144;0;2;0;3851;0;0;0;0;3;0;2394;0;0;0;0;4;0;3282;0;0;0;0;5;0;8208;0;0;0;0;0;0;6;0;5426;0;0;0;0;0;0;7;0;4271;0;0;0;0;8;0;4281;0;0;0;0;9;0;2288;0;0;0;0
03.11.18;23:05:00;1;390;10113;0;2;0;3851;0;0;0;0;3;0;2394;0;0;0;0;4;0;3282;0;0;0;0;5;0;8208;0;0;0;0;0;0;6;0;5426;0;0;0;0;0;0;7;0;4271;0;0;0;0;8;0;4281;0;0;0;0;9;0;2288;0;0;0;0
03.11.18;23:00:00;1;394;10081;0;2;0;3851;0;0;0;0;3;0;2394;0;0;0;0;4;0;3282;0;0;0;0;5;0;8208;0;0;0;0;0;0;6;0;5426;0;0;0;0;0;0;7;0;4271;0;0;0;0;8;0;4281;0;0;0;0;9;0;2288;0;0;0;0
03.11.18;22:55:00;1;396;10048;0;2;0;3851;0;0;0;0;3;0;2394;0;0;0;0;4;0;3282;0;0;0;0;5;0;8208;2;0;0;0;0;0;6;0;5426;2;0;0;0;0;0;7;0;4271;0;0;0;0;8;0;4281;0;0;0;0;9;0;2288;0;0;0;0
03.11.18;22:50:00;1;359;10015;0;2;0;3851;0;0;0;0;3;0;2394;0;0;0;0;4;0;3282;0;0;0;0;5;0;8208;2;0;0;0;0;0;6;0;5426;2;0;0;0;0;0;7;0;4271;0;0;0;0;8;0;4281;0;0;0;0;9;0;2288;0;0;0;0
03.11.18;22:45:00;1;354;9985;0;2;0;3851;0;0;0;0;3;0;2394;0;0;0;0;4;0;3282;0;0;0;0;5;0;8208;2;0;0;0;0;0;6;0;5426;2;0;0;0;0;0;7;0;4271;0;0;0;0;8;0;4281;0;0;0;0;9;0;2288;0;0;0;0
03.11.18;22:40:00;1;366;9955;0;2;0;3851;0;0;0;0;3;0;2394;0;0;0;0;4;0;3282;0;0;0;0;5;0;8208;2;0;0;0;0;0;6;0;5426;2;0;0;0;0;0;7;0;4271;0;0;0;0;8;0;4281;0;0;0;0;9;0;2288;0;0;0;0
03.11.18;22:35:00;1;396;9924;0;2;0;3851;0;0;0;0;3;0;2394;0;0;0;0;4;0;3282;0;0;0;0;5;0;8208;2;0;0;0;0;0;6;0;5426;2;0;0;0;0;0;7;0;4271;0;0;0;0;8;0;4281;0;0;0;0;9;0;2288;0;0;0;0
03.11.18;22:30:00;1;396;9891;0;2;0;3851;0;0;0;0;3;0;2394;0;0;0;0;4;0;3282;0;0;0;0;5;0;8208;2;0;0;0;0;0;6;0;5426;2;0;0;0;0;0;7;0;4271;0;0;0;0;8;0;4281;0;0;0;0;9;0;2288;0;0;0;0
03.11.18;22:25:00;1;398;9858;0;2;0;3851;0;0;0;0;3;0;2394;0;0;0;0;4;0;3282;0;0;0;0;5;0;8208;2;0;0;0;0;0;6;0;5426;2;0;0;0;0;0;7;0;4271;0;0;0;0;8;0;4281;0;0;0;0;9;0;2288;0;0;0;0
03.11.18;22:20:00;1;397;9825;0;2;0;3851;0;0;0;0;3;0;2394;0;0;0;0;4;0;3282;0;0;0;0;5;0;8208;2;0;0;0;0;0;6;0;5426;2;0;0;0;0;0;7;0;4271;0;0;0;0;8;0;4281;0;0;0;0;9;0;2288;0;0;0;0
03.11.18;22:15:00;1;397;9792;0;2;0;3851;0;0;0;0;3;0;2394;0;0;0;0;4;0;3282;0;0;0;0;5;0;8208;2;0;0;0;0;0;6;0;5426;2;0;0;0;0;0;7;0;4271;0;0;0;0;8;0;4281;0;0;0;0;9;0;2288;0;0;0;0
03.11.18;22:10:00;1;442;9757;0;2;0;3851;0;0;0;0;3;0;2394;0;0;0;0;4;0;3282;0;0;0;0;5;0;8208;2;0;0;0;0;0;6;0;5426;2;0;0;0;0;0;7;0;4271;0;0;0;0;8;0;4281;0;0;0;0;9;0;2288;0;0;0;0
03.11.18;22:05:00;1;431;9720;0;2;0;3851;0;0;0;0;3;0;2394;0;0;0;0;4;0;3282;0;0;0;0;5;0;8208;2;0;0;0;0;0;6;0;5426;2;0;0;0;0;0;7;0;4271;0;0;0;0;8;0;4281;0;0;0;0;9;0;2288;0;0;0;0
03.11.18;22:00:00;1;393;9684;0;2;0;3851;0;0;0;0;3;0;2394;0;0;0;0;4;0;3282;0;0;0;0;5;0;8208;2;0;0;0;0;0;6;0;5426;2;0;0;0;0;0;7;0;4271;0;0;0;0;8;0;4281;0;0;0;0;9;0;2288;0;0;0;0
03.11.18;21:55:00;1;385;9650;0;2;0;3851;0;0;0;0;3;0;2394;0;0;0;0;4;0;3282;0;0;0;0;5;0;8208;2;0;0;0;0;0;6;0;5426;2;0;0;0;0;0;7;0;4271;0;0;0;0;8;0;4281;0;0;0;0;9;0;2288;0;0;0;0
03.11.18;21:50:00;1;389;9618;0;2;0;3851;0;0;0;0;3;0;2394;0;0;0;0;4;0;3282;0;0;0;0;5;0;8208;2;0;0;0;0;0;6;0;5426;2;0;0;0;0;0;7;0;4271;0;0;0;0;8;0;4281;0;0;0;0;9;0;2288;0;0;0;0
03.11.18;21:45:00;1;411;9585;0;2;0;3851;0;0;0;0;3;0;2394;0;0;0;0;4;0;3282;0;0;0;0;5;0;8208;2;0;0;0;0;0;6;0;5426;2;0;0;0;0;0;7;0;4271;0;0;0;0;8;0;4281;0;0;0;0;9;0;2288;0;0;0;0
03.11.18;21:40:00;1;522;9550;0;2;0;3851;0;0;0;0;3;0;2394;0;0;0;0;4;0;3282;0;0;0;0;5;0;8208;2;0;0;0;0;0;6;0;5426;2;0;0;0;0;0;7;0;4271;0;0;0;0;8;0;4281;0;0;0;0;9;0;2288;0;0;0;0
03.11.18;21:35:00;1;560;9506;0;2;0;3851;0;0;0;0;3;0;2394;0;0;0;0;4;0;3282;0;0;0;0;5;0;8208;2;0;0;0;0;0;6;0;5426;2;0;0;0;0;0;7;0;4271;0;0;0;0;8;0;4281;0;0;0;0;9;0;2288;0;0;0;0
03.11.18;21:30:00;1;557;9460;0;2;0;3851;0;0;0;0;3;0;2394;0;0;0;0;4;0;3282;0;0;0;0;5;0;8208;2;0;0;0;0;0;6;0;5426;2;0;0;0;0;0;7;0;4271;0;0;0;0;8;0;4281;0;0;0;0;9;0;2288;0;0;0;0
03.11.18;21:25:00;1;588;9414;0;2;0;3851;0;0;0;0;3;0;2394;0;0;0;0;4;0;3282;0;0;0;0;5;0;8208;2;0;0;0;0;0;6;0;5426;2;0;0;0;0;0;7;0;4271;0;0;0;0;8;0;4281;0;0;0;0;9;0;2288;0;0;0;0
03.11.18;21:20:00;1;600;9364;0;2;0;3851;0;0;0;0;3;0;2394;0;0;0;0;4;0;3282;0;0;0;0;5;0;8208;2;0;0;0;0;0;6;0;5426;2;0;0;0;0;0;7;0;4271;0;0;0;0;8;0;4281;0;0;0;0;9;0;2288;0;0;0;0
03.11.18;21:15:00;1;600;9314;0;2;0;3851;0;0;0;0;3;0;2394;0;0;0;0;4;0;3282;0;0;0;0;5;0;8208;2;0;0;0;0;0;6;0;5426;2;0;0;0;0;0;7;0;4271;0;0;0;0;8;0;4281;0;0;0;0;9;0;2288;0;0;0;0
03.11.18;21:10:00;1;698;9263;0;2;0;3851;0;0;0;0;3;0;2394;0;0;0;0;4;0;3282;0;0;0;0;5;0;8208;2;0;0;0;0;0;6;0;5426;2;0;0;0;0;0;7;0;4271;0;0;0;0;8;0;4281;0;0;0;0;9;0;2288;0;0;0;0
03.11.18;21:05:00;1;520;9215;0;2;0;3851;0;0;0;0;3;0;2394;0;0;0;0;4;0;3282;0;0;0;0;5;0;8208;2;0;0;0;0;0;6;0;5426;2;0;0;0;0;0;7;0;4271;0;0;0;0;8;0;4281;0;0;0;0;9;0;2288;0;0;0;0
03.11.18;21:00:00;1;524;9171;0;2;0;3851;0;0;0;0;3;0;2394;0;0;0;0;4;0;3282;0;0;0;0;5;0;8208;2;0;0;0;0;0;6;0;5426;2;0;0;0;0;0;7;0;4271;0;0;0;0;8;0;4281;0;0;0;0;9;0;2288;0;0;0;0
03.11.18;20:55:00;1;462;9129;0;2;0;3851;0;0;0;0;3;0;2394;0;0;0;0;4;0;3282;0;0;0;0;5;0;8208;2;0;0;0;0;0;6;0;5426;2;0;0;0;0;0;7;0;4271;0;0;0;0;8;0;4281;0;0;0;0;9;0;2288;0;0;0;0
03.11.18;20:50:00;1;465;9090;0;2;0;3851;0;0;0;0;3;0;2394;0;0;0;0;4;0;3282;0;0;0;0;5;0;8208;2;0;0;0;0;0;6;0;5426;2;0;0;0;0;0;7;0;4271;0;0;0;0;8;0;4281;0;0;0;0;9;0;2288;0;0;0;0
03.11.18;20:45:00;1;458;9051;0;2;0;3851;0;0;0;0;3;0;2394;0;0;0;0;4;0;3282;0;0;0;0;5;0;8208;2;0;0;0;0;0;6;0;5426;2;0;0;0;0;0;7;0;4271;0;0;0;0;8;0;4281;0;0;0;0;9;0;2288;0;0;0;0
03.11.18;20:40:00;1;450;9013;0;2;0;3851;0;0;0;0;3;0;2394;0;0;0;0;4;0;3282;0;0;0;0;5;0;8208;2;0;0;0;0;0;6;0;5426;2;0;0;0;0;0;7;0;4271;0;0;0;0;8;0;4281;0;0;0;0;9;0;2288;0;0;0;0
03.11.18;20:35:00;1;461;8975;0;2;0;3851;0;0;0;0;3;0;2394;0;0;0;0;4;0;3282;0;0;0;0;5;0;8208;2;0;0;0;0;0;6;0;5426;2;0;0;0;0;0;7;0;4271;0;0;0;0;8;0;4281;0;0;0;0;9;0;2288;0;0;0;0
03.11.18;20:30:00;1;506;8936;0;2;0;3851;0;0;0;0;3;0;2394;0;0;0;0;4;0;3282;0;0;0;0;5;0;8208;2;0;0;0;0;0;6;0;5426;2;0;0;0;0;0;7;0;4271;0;0;0;0;8;0;4281;0;0;0;0;9;0;2288;0;0;0;0
03.11.18;20:25:00;1;510;8894;0;2;0;3851;0;0;0;0;3;0;2394;0;0;0;0;4;0;3282;0;0;0;0;5;0;8208;2;0;0;0;0;0;6;0;5426;2;0;0;0;0;0;7;0;4271;0;0;0;0;8;0;4281;0;0;0;0;9;0;2288;0;0;0;0
03.11.18;20:20:00;1;511;8851;0;2;0;3851;0;0;0;0;3;0;2394;0;0;0;0;4;0;3282;0;0;0;0;5;0;8208;2;0;0;0;0;0;6;0;5426;2;0;0;0;0;0;7;0;4271;0;0;0;0;8;0;4281;0;0;0;0;9;0;2288;0;0;0;0
03.11.18;20:15:00;1;1001;8809;0;2;0;3851;0;0;0;0;3;0;2394;0;0;0;0;4;0;3282;0;0;0;0;5;0;8208;2;0;0;0;0;0;6;0;5426;2;0;0;0;0;0;7;0;4271;0;0;0;0;8;0;4281;0;0;0;0;9;0;2288;0;0;0;0
03.11.18;20:10:00;1;430;8724;0;2;0;3851;0;0;0;0;3;0;2394;0;0;0;0;4;0;3282;0;0;0;0;5;0;8208;2;0;0;0;0;0;6;0;5426;2;0;0;0;0;0;7;0;4271;0;0;0;0;8;0;4281;0;0;0;0;9;0;2288;0;0;0;0
03.11.18;20:05:00;1;371;8691;0;2;0;3851;0;0;0;0;3;0;2394;0;0;0;0;4;0;3282;0;0;0;0;5;0;8208;2;0;0;0;0;0;6;0;5426;2;0;0;0;0;0;7;0;4271;0;0;0;0;8;0;4281;0;0;0;0;9;0;2288;0;0;0;0
03.11.18;20:00:00;1;351;8660;0;2;0;3851;0;0;0;0;3;0;2394;0;0;0;0;4;0;3282;0;0;0;0;5;0;8208;2;0;0;0;0;0;6;0;5426;2;0;0;0;0;0;7;0;4271;0;0;0;0;8;0;4281;0;0;0;0;9;0;2288;0;0;0;0
03.11.18;19:55:00;1;352;8631;0;2;0;3851;0;0;0;0;3;0;2394;0;0;0;0;4;0;3282;0;0;0;0;5;0;8208;2;0;0;0;0;0;6;0;5426;2;0;0;0;0;0;7;0;4271;0;0;0;0;8;0;4281;0;0;0;0;9;0;2288;0;0;0;0
03.11.18;19:50:00;1;352;8601;0;2;0;3851;0;0;0;0;3;0;2394;0;0;0;0;4;0;3282;0;0;0;0;5;0;8208;2;0;0;0;0;0;6;0;5426;2;0;0;0;0;0;7;0;4271;0;0;0;0;8;0;4281;0;0;0;0;9;0;2288;0;0;0;0
03.11.18;19:45:00;1;352;8572;0;2;0;3851;0;0;0;0;3;0;2394;0;0;0;0;4;0;3282;0;0;0;0;5;0;8208;2;0;0;0;0;0;6;0;5426;2;0;0;0;0;0;7;0;4271;0;0;0;0;8;0;4281;0;0;0;0;9;0;2288;0;0;0;0
03.11.18;19:40:00;1;387;8542;0;2;0;3851;0;0;0;0;3;0;2394;0;0;0;0;4;0;3282;0;0;0;0;5;0;8208;2;0;0;0;0;0;6;0;5426;2;0;0;0;0;0;7;0;4271;0;0;0;0;8;0;4281;0;0;0;0;9;0;2288;0;0;0;0
03.11.18;19:35:00;1;406;8510;0;2;0;3851;0;0;0;0;3;0;2394;0;0;0;0;4;0;3282;0;0;0;0;5;0;8208;2;0;0;0;0;0;6;0;5426;2;0;0;0;0;0;7;0;4271;0;0;0;0;8;0;4281;0;0;0;0;9;0;2288;0;0;0;0
03.11.18;19:30:00;1;458;8476;0;2;0;3851;0;0;0;0;3;0;2394;0;0;0;0;4;0;3282;0;0;0;0;5;0;8208;2;0;0;0;0;0;6;0;5426;2;0;0;0;0;0;7;0;4271;0;0;0;0;8;0;4281;0;0;0;0;9;0;2288;0;0;0;0
03.11.18;19:25:00;1;449;8438;0;2;0;3851;0;0;0;0;3;0;2394;0;0;0;0;4;0;3282;0;0;0;0;5;0;8208;2;0;0;0;0;0;6;0;5426;2;0;0;0;0;0;7;0;4271;0;0;0;0;8;0;4281;0;0;0;0;9;0;2288;0;0;0;0
03.11.18;19:20:00;1;426;8401;0;2;0;3851;0;0;0;0;3;0;2394;0;0;0;0;4;0;3282;0;0;0;0;5;0;8208;2;0;0;0;0;0;6;0;5426;2;0;0;0;0;0;7;0;4271;0;0;0;0;8;0;4281;0;0;0;0;9;0;2288;0;0;0;0
03.11.18;19:15:00;1;429;8365;0;2;0;3851;0;0;0;0;3;0;2394;0;0;0;0;4;0;3282;0;0;0;0;5;0;8208;2;0;0;0;0;0;6;0;5426;2;0;0;0;0;0;7;0;4271;0;0;0;0;8;0;4281;0;0;0;0;9;0;2288;0;0;0;0
03.11.18;19:10:00;1;407;8329;0;2;0;3851;0;0;0;0;3;0;2394;0;0;0;0;4;0;3282;0;0;0;0;5;0;8208;2;0;0;0;0;0;6;0;5426;2;0;0;0;0;0;7;0;4271;0;0;0;0;8;0;4281;0;0;0;0;9;0;2288;0;0;0;0
03.11.18;19:05:00;1;364;8296;0;2;0;3851;0;0;0;0;3;0;2394;0;0;0;0;4;0;3282;0;0;0;0;5;0;8208;2;0;0;0;0;0;6;0;5426;2;0;0;0;0;0;7;0;4271;0;0;0;0;8;0;4281;0;0;0;0;9;0;2288;0;0;0;0
03.11.18;19:00:00;1;364;8266;0;2;0;3851;0;0;0;0;3;0;2394;0;0;0;0;4;0;3282;0;0;0;0;5;0;8208;2;0;0;0;0;0;6;0;5426;2;0;0;0;0;0;7;0;4271;0;0;0;0;8;0;4281;0;0;0;0;9;0;2288;0;0;0;0
03.11.18;18:55:00;1;349;8235;0;2;0;3851;0;0;0;0;3;0;2394;0;0;0;0;4;0;3282;0;0;0;0;5;0;8208;2;0;0;0;0;0;6;0;5426;2;0;0;0;0;0;7;0;4271;0;0;0;0;8;0;4281;0;0;0;0;9;0;2288;0;0;0;0
03.11.18;18:50:00;1;306;8206;0;2;0;3851;0;0;0;0;3;0;2394;0;0;0;0;4;0;3282;0;0;0;0;5;0;8208;2;0;0;0;0;0;6;0;5426;2;0;0;0;0;0;7;0;4271;0;0;0;0;8;0;4281;0;0;0;0;9;0;2288;0;0;0;0
03.11.18;18:45:00;1;333;8181;0;2;0;3851;0;0;0;0;3;0;2394;0;0;0;0;4;0;3282;0;0;0;0;5;0;8208;2;0;0;0;0;0;6;0;5426;2;0;0;0;0;0;7;0;4271;0;0;0;0;8;0;4281;0;0;0;0;9;0;2288;0;0;0;0
03.11.18;18:40:00;1;344;8152;0;2;0;3851;0;0;0;0;3;0;2394;0;0;0;0;4;0;3282;0;0;0;0;5;0;8208;2;0;0;0;0;0;6;0;5426;2;0;0;0;0;0;7;0;4271;0;0;0;0;8;0;4281;0;0;0;0;9;0;2288;0;0;0;0
03.11.18;18:35:00;1;346;8123;0;2;0;3851;0;0;0;0;3;0;2394;0;0;0;0;4;0;3282;0;0;0;0;5;0;8208;2;0;0;0;0;0;6;0;5426;2;0;0;0;0;0;7;0;4271;0;0;0;0;8;0;4281;0;0;0;0;9;0;2288;0;0;0;0
03.11.18;18:30:00;1;330;8094;0;2;0;3851;0;0;0;0;3;0;2394;0;0;0;0;4;0;3282;0;0;0;0;5;0;8208;2;0;0;0;0;0;6;0;5426;2;0;0;0;0;0;7;0;4271;0;0;0;0;8;0;4281;0;0;0;0;9;0;2288;0;0;0;0
03.11.18;18:25:00;1;301;8068;0;2;0;3851;0;0;0;0;3;0;2394;0;0;0;0;4;0;3282;0;0;0;0;5;0;8208;2;0;0;0;0;0;6;0;5426;2;0;0;0;0;0;7;0;4271;0;0;0;0;8;0;4281;0;0;0;0;9;0;2288;0;0;0;0
03.11.18;18:20:00;1;301;8043;0;2;0;3851;0;0;0;0;3;0;2394;0;0;0;0;4;0;3282;0;0;0;0;5;0;8208;2;0;0;0;0;0;6;0;5426;2;0;0;0;0;0;7;0;4271;0;0;0;0;8;0;4281;0;0;0;0;9;0;2288;0;0;0;0
03.11.18;18:15:00;1;301;8018;0;2;0;3851;0;0;0;0;3;0;2394;0;0;0;0;4;0;3282;0;0;0;0;5;0;8208;2;0;0;0;0;0;6;0;5426;2;0;0;0;0;0;7;0;4271;0;0;0;0;8;0;4281;0;0;0;0;9;0;2288;0;0;0;0
03.11.18;18:10:00;1;317;7993;0;2;0;3851;0;0;0;0;3;0;2394;0;0;0;0;4;0;3282;0;0;0;0;5;0;8208;2;0;0;0;0;0;6;0;5426;2;0;0;0;0;0;7;0;4271;0;0;0;0;8;0;4281;0;0;0;0;9;0;2288;0;0;0;0
03.11.18;18:05:00;1;415;7965;0;2;0;3851;0;0;0;0;3;0;2394;0;0;0;0;4;0;3282;0;0;0;0;5;0;8208;2;0;0;0;0;0;6;0;5426;2;0;0;0;0;0;7;0;4271;0;0;0;0;8;0;4281;0;0;0;0;9;0;2288;0;0;0;0
03.11.18;18:00:00;1;460;7930;0;2;0;3851;0;0;0;0;3;0;2394;0;0;0;0;4;0;3282;0;0;0;0;5;0;8208;2;0;0;0;0;0;6;0;5426;2;0;0;0;0;0;7;0;4271;0;0;0;0;8;0;4281;0;0;0;0;9;0;2288;0;0;0;0
03.11.18;17:55:00;1;1533;7885;0;2;0;3851;0;0;0;0;3;0;2394;0;0;0;0;4;0;3282;0;0;0;0;5;0;8208;2;0;0;0;0;0;6;0;5426;2;0;0;0;0;0;7;0;4271;0;0;0;0;8;0;4281;0;0;0;0;9;0;2288;0;0;0;0
03.11.18;17:50:00;1;485;7781;0;2;0;3851;0;0;0;0;3;0;2394;0;0;0;0;4;0;3282;0;0;0;0;5;0;8208;2;0;0;0;0;0;6;0;5426;2;0;0;0;0;0;7;0;4271;0;0;0;0;8;0;4281;0;0;0;0;9;0;2288;0;0;0;0
03.11.18;17:45:00;1;420;7741;0;2;0;3851;0;0;0;0;3;0;2394;0;0;0;0;4;0;3282;0;0;0;0;5;0;8208;2;0;0;0;0;0;6;0;5426;2;0;0;0;0;0;7;0;4271;0;0;0;0;8;0;4281;0;0;0;0;9;0;2288;0;0;0;0
03.11.18;17:40:00;1;456;7706;0;2;0;3851;0;0;0;0;3;0;2394;0;0;0;0;4;0;3282;0;0;0;0;5;0;8208;2;0;0;0;0;0;6;0;5426;2;0;0;0;0;0;7;0;4271;0;0;0;0;8;0;4281;0;0;0;0;9;0;2288;0;0;0;0
03.11.18;17:35:00;1;617;7667;0;2;0;3851;0;0;0;0;3;0;2394;0;0;0;0;4;0;3282;0;0;0;0;5;0;8208;2;0;0;0;0;0;6;0;5426;2;0;0;0;0;0;7;0;4271;0;0;0;0;8;0;4281;0;0;0;0;9;0;2288;0;0;0;0
03.11.18;17:30:00;1;717;7616;0;2;0;3851;0;0;0;0;3;0;2394;0;0;0;0;4;0;3282;0;0;0;0;5;0;8208;2;0;0;0;0;0;6;0;5426;2;0;0;0;0;0;7;0;4271;0;0;0;0;8;0;4281;0;0;0;0;9;0;2288;0;0;0;0
03.11.18;17:25:00;1;698;7554;0;2;0;3851;0;0;0;0;3;0;2394;0;0;0;0;4;0;3282;0;0;0;0;5;0;8208;2;0;0;0;0;0;6;0;5426;2;0;0;0;0;0;7;0;4271;0;0;0;0;8;0;4281;0;0;0;0;9;0;2288;0;0;0;0
03.11.18;17:20:00;1;768;7496;0;2;0;3851;0;0;0;0;3;0;2394;0;0;0;0;4;0;3282;0;0;0;0;5;0;8208;2;0;0;0;0;0;6;0;5426;2;0;0;0;0;0;7;0;4271;0;0;0;0;8;0;4281;0;0;0;0;9;0;2288;0;0;0;0
03.11.18;17:15:00;1;927;7429;0;2;0;3851;0;0;0;0;3;0;2394;0;0;0;0;4;0;3282;0;0;0;0;5;0;8208;2;0;0;0;0;0;6;0;5426;2;0;0;0;0;0;7;0;4271;0;0;0;0;8;0;4281;0;0;0;0;9;0;2288;0;0;0;0
03.11.18;17:10:00;1;923;7353;0;2;0;3851;0;0;0;0;3;0;2394;0;0;0;0;4;0;3282;0;0;0;0;5;0;8208;2;0;0;0;0;0;6;0;5426;2;0;0;0;0;0;7;0;4271;0;0;0;0;8;0;4281;0;0;0;0;9;0;2288;0;0;0;0
03.11.18;17:05:00;1;869;7279;0;2;0;3851;0;0;0;0;3;0;2394;0;0;110;7;4;0;3282;0;0;0;0;5;0;8208;2;0;0;0;0;0;6;0;5426;2;0;0;0;0;0;7;0;4271;0;0;0;0;8;0;4281;0;0;0;0;9;0;2288;0;0;0;0
03.11.18;17:00:00;1;879;7207;0;2;0;3851;0;0;231;12;3;0;2394;6;0;308;18;4;0;3282;0;0;61;14;5;0;8208;2;0;0;0;0;0;6;0;5426;0;0;0;0;0;1;7;0;4271;0;0;0;0;8;0;4281;0;0;0;0;9;0;2288;0;0;0;0
03.11.18;16:55:00;1;631;7134;0;2;0;3851;6;0;315;15;3;0;2394;6;0;384;18;4;0;3282;1;0;112;17;5;0;8208;2;0;0;192;191;18;6;0;5426;2;4;0;89;180;15;7;0;4271;0;0;41;3;8;0;4281;0;0;42;3;9;0;2288;0;0;131;8
03.11.18;16:50:00;1;519;7081;0;2;0;3851;6;0;348;15;3;0;2394;6;2;421;19;4;0;3282;1;0;153;18;5;0;8208;23;0;0;373;418;27;6;0;5426;23;10;0;180;487;26;7;0;4271;6;0;290;20;8;0;4281;6;0;295;20;9;0;2288;6;0;311;16
03.11.18;16:45:00;1;418;7040;0;2;0;3851;6;0;364;16;3;0;2394;6;1;443;19;4;0;3282;1;0;180;18;5;0;8208;26;0;0;397;542;27;6;0;5426;23;8;0;489;236;26;7;0;4271;6;0;338;20;8;0;4281;6;0;344;20;9;0;2288;6;0;365;16
03.11.18;16:40:00;1;569;7004;0;2;0;3851;6;0;371;16;3;1;2394;4;2;448;19;4;0;3282;1;0;193;18;5;12;8208;1;0;3;385;594;27;6;0;5426;23;8;0;257;468;26;7;0;4271;6;0;364;20;8;0;4281;6;0;370;20;9;0;2288;6;0;397;16
03.11.18;16:35:00;1;683;6954;0;2;0;3851;6;0;383;16;3;2;2393;3;5;429;19;4;0;3282;1;0;205;19;5;13;8207;1;0;4;401;627;28;6;0;5426;23;10;0;394;556;27;7;0;4271;6;0;397;21;8;0;4281;6;0;399;20;9;0;2288;6;0;422;17
03.11.18;16:30:00;1;531;6898;0;2;0;3851;6;0;387;16;3;1;2393;6;3;468;19;4;0;3282;3;0;203;19;5;10;8206;1;0;3;403;645;28;6;0;5426;8;11;0;406;561;27;7;0;4271;6;0;409;21;8;0;4281;6;1;414;20;9;0;2288;6;0;467;17
03.11.18;16:25:00;1;394;6854;0;2;0;3851;6;0;388;17;3;1;2393;6;3;473;19;4;0;3282;1;0;218;19;5;15;8206;1;0;3;401;638;28;6;0;5426;8;9;0;436;561;28;7;0;4271;6;1;412;21;8;0;4281;6;0;417;21;9;0;2288;4;1;431;17
03.11.18;16:20:00;1;261;6822;0;2;0;3851;6;0;391;17;3;3;2393;6;9;445;19;4;0;3282;3;0;207;19;5;11;8205;1;0;3;407;651;29;6;0;5426;8;9;0;374;565;28;7;0;4271;6;2;418;21;8;0;4281;0;0;336;16;9;0;2288;3;2;455;17
03.11.18;16:15:00;1;217;6804;0;2;0;3851;6;0;395;17;3;2;2393;6;4;482;20;4;0;3282;3;0;212;20;5;47;8204;1;4;13;388;621;29;6;6;5426;23;14;1;505;509;28;7;1;4271;6;3;415;21;8;0;4281;6;1;433;21;9;1;2288;6;1;471;17
03.11.18;16:10:00;1;395;6785;0;2;24;3851;6;34;389;18;3;0;2393;4;5;499;20;4;6;3282;3;6;198;20;5;120;8199;4;37;42;372;595;30;6;62;5426;4;53;18;443;215;29;7;7;4271;3;13;426;22;8;2;4281;3;2;454;21;9;0;2288;6;3;496;17
03.11.18;16:05:00;1;2341;6713;0;2;82;3849;4;109;360;18;3;16;2393;4;28;491;20;4;43;3282;3;45;197;20;5;218;8188;4;92;88;372;595;30;6;113;5420;4;99;39;443;215;29;7;34;4270;4;45;454;22;8;50;4281;4;69;438;21;9;9;2288;6;14;535;18
03.11.18;16:00:00;1;2197;6529;0;2;75;3842;4;102;361;18;3;11;2391;3;18;531;20;4;33;3278;3;35;197;20;5;209;8169;4;84;91;372;595;30;6;104;5410;4;76;30;443;215;29;7;49;4266;6;65;420;22;8;41;4277;6;65;424;22;9;0;2287;6;0;553;18
03.11.18;15:55:00;1;2058;6360;0;2;184;3836;4;217;365;18;3;109;2390;4;145;482;21;4;137;3275;5;142;221;20;5;414;8151;4;194;181;380;606;30;6;199;5401;4;145;64;443;215;29;7;168;4263;4;209;431;22;8;174;4273;4;208;429;22;9;89;2287;4;117;492;18
03.11.18;15:50:00;1;1889;6249;0;2;251;3820;4;285;370;19;3;151;2381;4;189;498;21;4;200;3264;5;209;223;20;5;545;8115;4;263;241;392;614;30;6;256;5384;4;178;76;443;215;29;7;264;4249;4;305;451;22;8;268;4259;4;304;448;22;9;141;2280;4;171;495;18
03.11.18;15:45:00;1;2104;6101;0;2;244;3800;4;279;377;19;3;148;2368;4;188;477;21;4;195;3248;5;202;223;20;5;532;8070;4;259;231;397;604;30;6;249;5363;4;148;65;443;215;29;7;262;4227;4;299;456;22;8;261;4237;4;300;464;22;9;143;2268;4;171;504;19
03.11.18;15:40:00;1;698;5898;0;2;262;3779;4;296;368;19;3;156;2356;4;199;495;21;4;211;3231;5;220;223;20;5;568;8026;4;274;251;393;624;30;6;265;5342;4;187;83;443;215;29;7;260;4205;4;306;455;22;8;267;4215;4;305;458;22;9;145;2256;4;173;490;19
03.11.18;15:35:00;1;2555;5858;0;2;236;3758;4;270;374;19;3;145;2343;4;183;489;21;4;197;3214;5;205;224;20;5;567;7978;4;276;245;390;626;30;6;268;5319;4;200;88;443;215;29;7;266;4184;4;305;461;22;8;272;4193;4;311;460;22;9;146;2244;4;176;508;19
03.11.18;15:30:00;1;1813;5658;0;2;158;3738;4;190;363;19;3;90;2331;4;130;485;21;4;118;3197;5;122;217;20;5;390;7932;4;185;171;372;595;30;6;193;5297;4;134;58;442;215;29;7;172;4161;4;208;431;22;8;177;4170;4;211;432;22;9;96;2232;4;121;482;19
03.11.18;15:25:00;1;989;5472;0;2;156;3724;4;189;367;19;3;92;2323;4;129;470;21;4;110;3187;5;115;214;20;5;343;7900;4;162;148;372;595;30;6;172;5282;4;132;57;443;215;29;7;146;4146;4;175;378;22;8;148;4155;4;175;377;22;9;78;2224;4;106;455;19
03.11.18;15:20:00;1;1760;5328;0;2;194;3711;4;226;364;19;3;115;2315;4;151;490;21;4;142;3178;5;148;218;21;5;388;7871;4;180;171;372;596;30;6;204;5267;4;147;61;500;215;29;7;186;4134;4;222;421;22;8;187;4143;4;223;431;22;9;98;2217;4;125;479;19
03.11.18;15:15:00;1;386;5208;0;2;318;3695;4;355;378;19;3;194;2306;4;235;498;22;4;255;3166;5;265;224;21;5;630;7838;4;308;275;396;620;30;6;331;5250;4;202;81;556;215;29;7;337;4118;4;379;448;22;8;332;4128;4;373;452;22;9;173;2209;4;207;498;19
03.11.18;15:10:00;1;421;5176;0;2;434;3669;4;473;384;20;3;268;2290;4;312;496;22;4;360;3145;5;375;228;21;5;869;7784;4;431;376;400;625;30;6;460;5221;4;351;135;564;215;29;7;468;4091;4;508;466;22;8;473;4100;4;515;461;22;9;248;2195;4;284;508;19
03.11.18;15:05:00;1;502;5138;0;2;457;3633;4;501;388;20;3;286;2268;4;332;493;22;4;404;3115;5;421;229;21;5;1026;7709;4;525;445;410;636;30;6;547;5182;4;438;168;570;215;29;7;627;4052;4;672;464;22;8;628;4061;4;675;456;22;9;334;2174;4;372;500;19
03.11.18;15:00:00;1;449;5097;0;2;352;3595;4;389;379;20;3;217;2244;4;259;476;22;4;297;3082;5;309;225;21;5;783;7624;4;392;337;402;619;30;6;415;5137;4;283;109;559;214;29;7;524;3999;4;562;453;22;8;526;4009;4;567;461;22;9;284;2147;4;322;503;19
03.11.18;14:55:00;1;425;5060;0;2;409;3565;4;448;382;20;3;251;2225;4;295;495;22;4;328;3056;5;342;226;21;5;800;7559;4;396;349;399;625;30;6;425;5102;4;319;125;561;215;29;7;408;3955;4;445;440;22;8;408;3964;4;449;457;22;9;222;2122;4;253;498;19
03.11.18;14:50:00;1;417;5024;0;2;501;3531;4;544;387;20;3;312;2204;4;358;500;22;4;415;3029;5;433;231;21;5;990;7492;4;500;434;401;636;30;6;526;5067;4;391;150;570;215;29;7;489;3921;4;521;464;22;8;477;3931;4;524;455;22;9;256;2104;4;291;505;19
03.11.18;14:45:00;1;418;4989;0;2;630;3490;4;676;394;20;3;395;2178;4;443;499;22;4;533;2995;5;555;233;21;5;1236;7408;4;626;541;407;643;30;6;660;5022;4;534;206;577;215;29;7;625;3881;4;678;466;22;8;638;3891;4;682;464;22;9;337;2083;4;380;511;19
03.11.18;14:40:00;1;416;4954;0;2;631;3437;4;678;391;20;3;395;2146;4;442;490;22;4;543;2950;5;566;234;21;5;1285;7303;4;654;561;418;652;30;6;686;4967;4;450;176;577;214;29;7;629;3829;4;667;463;22;8;627;3838;4;673;465;22;9;336;2055;4;373;505;19
03.11.18;14:35:00;1;415;4920;0;2;560;3385;4;603;384;20;3;351;2113;4;398;491;22;4;482;2905;5;502;233;21;5;1178;7198;4;603;515;413;643;29;6;634;4910;4;480;185;574;215;29;7;539;3776;4;582;463;22;8;544;3785;4;584;459;22;9;290;2027;4;327;507;19
03.11.18;14:30:00;1;457;4885;0;2;527;3338;4;571;387;20;3;329;2083;4;376;498;22;4;454;2865;5;473;230;21;5;1108;7100;4;557;480;406;645;29;6;590;4857;4;436;163;573;215;29;7;517;3732;4;564;447;22;8;528;3740;4;574;452;22;9;283;2002;4;320;511;19
03.11.18;14:25:00;1;550;4847;0;2;580;3294;4;626;390;19;3;360;2056;4;412;499;22;4;502;2826;5;523;233;20;5;1215;7008;4;618;530;404;651;29;6;648;4808;4;531;204;578;214;29;7;591;3688;4;636;463;22;8;594;3696;4;647;465;22;9;317;1979;4;360;514;19
03.11.18;14:20:00;1;472;4801;0;2;452;3246;4;494;386;19;3;282;2026;4;327;504;21;4;395;2785;5;412;229;20;5;1027;6906;4;516;444;413;641;29;6;549;4754;4;423;164;577;215;29;7;533;3639;4;577;461;22;8;542;3646;4;585;463;22;9;292;1953;4;330;514;19
03.11.18;14:15:00;1;474;4762;0;2;361;3207;4;399;384;19;3;222;2002;4;266;490;21;4;296;2752;5;308;226;20;5;762;6824;4;383;327;409;626;29;6;398;4710;4;311;116;577;215;29;7;433;3595;4;462;457;22;8;427;3601;4;464;462;22;9;225;1928;4;259;514;19
03.11.18;14:10:00;1;423;4725;0;2;330;3177;4;367;381;19;3;203;1984;4;241;477;21;4;271;2727;5;282;229;20;5;706;6760;4;345;302;403;619;29;6;374;4677;4;284;109;557;215;29;7;311;3558;4;345;459;22;8;317;3565;4;355;465;22;9;172;1909;4;203;500;19
03.11.18;14:05:00;1;419;4689;0;2;318;3150;4;355;382;19;3;198;1966;4;238;485;21;4;260;2704;5;270;229;20;5;685;6702;4;336;298;399;626;29;6;367;4646;4;275;108;565;215;29;7;233;3532;4;259;430;22;8;232;3538;4;263;441;22;9;118;1894;4;148;502;19
03.11.18;14:00:00;1;495;4654;0;2;287;3123;4;323;379;19;3;176;1950;4;216;489;22;4;237;2682;5;247;226;20;5;644;6645;4;304;282;397;625;29;6;343;4615;4;272;104;554;215;29;7;250;3513;4;275;437;22;8;247;3519;4;279;445;22;9;130;1885;4;159;487;19
03.11.18;13:55:00;1;452;4613;0;2;208;3099;4;240;368;20;3;121;1935;4;162;492;22;4;163;2663;5;170;222;21;5;464;6592;4;221;197;383;589;29;6;306;4587;4;203;131;547;371;29;7;224;3492;4;259;438;22;8;226;3499;4;259;448;22;9;117;1874;4;147;500;19
03.11.18;13:50:00;1;429;4575;0;2;281;3082;4;318;379;20;3;171;1925;4;209;487;22;4;220;2649;5;230;223;21;5;561;6554;4;269;238;389;610;29;6;422;4561;4;212;196;557;534;29;7;229;3473;4;270;442;23;8;237;3480;4;272;432;22;9;124;1864;4;153;500;19